Location: *
(41.3833°S, 177.8333°W)
Time: 03:43:45
(UTC+00:00)

Cosmos 2360 Rocket - Pass Details

Date: 01 April 2020
Orbit: 834 x 845 km, 71.0° (Epoch: 31 May)

Event Time Altitude Azimuth Distance (km) Brightness Sun altitude
Exits shadow 17:22:33 10° 290° (WNW) 2,493 4.0 -9.3°
Reaches altitude 10° 17:22:36 10° 290° (WNW) 2,476 4.0 -9.3°
Maximum altitude 17:27:19 26° 234° (SW) 1,619 3.3 -8.4°
Drops below altitude 10° 17:32:05 10° 178° (S) 2,501 4.7 -7.5°
Sets 17:34:59 0° 165° (SSE) 3,443 5.6 -7.0°
